Knoxville, TN

10:47 AM EST on November 15, 2019 (GMT -0500)
McGhee Tyson

Weather History for KTYS - September, 2019

Change the Weather History Date:

Thursday, September 26, 2019

  Actual Average Record
Temperature  
Mean Temperature 78 °F 67 °F  
Max Temperature 89 °F 78 °F 89 °F (1933)
Min Temperature 67 °F 56 °F 41 °F (2001)
Degree Days  
Heating Degree Days 0 2  
Month to date heating degree days 0 13  
Since 1 July heating degree days 0 13  
Cooling Degree Days 13 4  
Month to date cooling degree days 346 192  
Year to date cooling degree days 1799 1473  
Growing Degree Days 28 (Base 50)    
Moisture  
Dew Point 62 °F    
Average Humidity 63    
Maximum Humidity 90    
Minimum Humidity 43    
Precipitation  
Precipitation 0.03 in 0.11 in 3.04 in (2009)
Month to date precipitation 0.03 2.80  
Year to date precipitation 48.26 36.40  
Snow  
Snow 0.00 in 0.00 in - ()
Month to date snowfall 0.0 0.0  
Since 1 July snowfall 0.0 0.0  
Since 1 September snowfall 0.0 0.0  
Snow Depth 0.00 in    
Sea Level Pressure  
Sea Level Pressure 29.90 in    
Wind  
Wind Speed 3 mph ()    
Max Wind Speed 16 mph    
Max Gust Speed 20 mph    
Visibility 9.8 miles    
Events Rain , Thunderstorm    
T = Trace of Precipitation, MM = Missing Value Source: Averaged Metar Reports

Daily Weather History Graph

Daily Weather History Graph

Search for Another Location

Airport or City:

Astronomy

Sep. 26, 2019 Rise Set
Actual Time 7:26 AM EDT 7:27 PM EDT
Civil Twilight 7:01 AM EDT 7:52 PM EDT
Nautical Twilight 6:31 AM EDT 8:22 PM EDT
Astronomical Twilight 6:01 AM EDT 8:52 PM EDT
Moon 4:40 AM EDT (9/26) 6:33 PM EDT (9/26)
Length of Visible Light 12h 51m
Length of Day
12h 00m
Waning Crescent, 7% of the Moon is Illuminated
Sep 26
Waning Crescent
Sep 28
New
Oct 5
First Quarter
Oct 13
Full
Oct 21
Last Quarter

Hourly Weather History & Observations

Time (EDT) Temp. Heat Index Dew Point Humidity Pressure Visibility Wind Dir Wind Speed Gust Speed Precip Events Conditions
12:53 AM 72.0 °F - 52.0 °F 49% 29.88 in 10.0 mi Calm Calm - N/A   Overcast
1:53 AM 69.8 °F - 55.4 °F 60% 29.87 in 10.0 mi Calm Calm - N/A   Scattered Clouds
2:53 AM 69.1 °F - 55.0 °F 61% 29.86 in 10.0 mi SSW 3.5 mph - N/A   Mostly Cloudy
3:53 AM 71.1 °F - 55.0 °F 57% 29.85 in 10.0 mi SW 4.6 mph - N/A   Mostly Cloudy
4:53 AM 71.1 °F - 54.0 °F 55% 29.86 in 7.0 mi West 6.9 mph - N/A   Mostly Cloudy
5:53 AM 71.1 °F - 57.0 °F 61% 29.88 in 10.0 mi WSW 3.5 mph - N/A   Mostly Cloudy
6:53 AM 68.0 °F - 57.0 °F 68% 29.88 in 10.0 mi SSE 4.6 mph - N/A   Scattered Clouds
7:53 AM 70.0 °F - 59.0 °F 68% 29.91 in 9.0 mi NW 3.5 mph - N/A   Mostly Cloudy
8:53 AM 68.0 °F - 63.0 °F 84% 29.93 in 10.0 mi SSW 3.5 mph - 0.03 in Rain Light Rain
9:53 AM 69.1 °F - 64.0 °F 84% 29.95 in 10.0 mi Calm Calm - 0.00 in   Overcast
10:53 AM 73.9 °F - 64.0 °F 71% 29.95 in 10.0 mi WSW 4.6 mph - N/A   Mostly Cloudy
11:53 AM 78.1 °F - 64.0 °F 62% 29.94 in 10.0 mi South 4.6 mph - N/A   Mostly Cloudy
12:53 PM 84.0 °F 85.4 °F 64.0 °F 51% 29.92 in 10.0 mi WSW 6.9 mph - N/A   Mostly Cloudy
1:53 PM 84.9 °F 86.1 °F 64.0 °F 49% 29.91 in 10.0 mi WNW 4.6 mph - N/A   Mostly Cloudy
2:53 PM 86.0 °F 87.3 °F 64.0 °F 48% 29.89 in 10.0 mi WNW 9.2 mph - N/A   Mostly Cloudy
3:53 PM 88.0 °F 88.7 °F 63.0 °F 43% 29.86 in 10.0 mi Variable 3.5 mph - N/A   Mostly Cloudy
4:35 PM 87.1 °F 87.8 °F 63.0 °F 44% 29.89 in 10.0 mi NW 4.6 mph - N/A Thunderstorm Mostly Cloudy
4:53 PM 86.0 °F 86.8 °F 63.0 °F 46% 29.86 in 10.0 mi NW 5.8 mph - N/A Thunderstorm Mostly Cloudy
5:08 PM 82.0 °F 83.8 °F 64.9 °F 56% 29.90 in 10.0 mi North 10.4 mph - N/A   Mostly Cloudy
5:53 PM 82.9 °F 84.4 °F 64.0 °F 53% 29.88 in 10.0 mi NW 4.6 mph - N/A   Mostly Cloudy
6:53 PM 80.1 °F 82.3 °F 66.9 °F 64% 29.91 in 10.0 mi NE 3.5 mph - 0.00 in   Mostly Cloudy
7:53 PM 77.0 °F - 66.9 °F 71% 29.91 in 10.0 mi East 5.8 mph - N/A   Overcast
8:53 PM 75.9 °F - 68.0 °F 76% 29.94 in 10.0 mi ENE 3.5 mph - N/A   Mostly Cloudy
9:53 PM 73.9 °F - 68.0 °F 82% 29.95 in 10.0 mi East 3.5 mph - N/A   Mostly Cloudy
10:53 PM 73.0 °F - 68.0 °F 84% 29.96 in 10.0 mi Calm Calm - N/A   Mostly Cloudy
11:53 PM 71.1 °F - 68.0 °F 90% 29.96 in 10.0 mi ENE 3.5 mph - N/A   Mostly Cloudy